This is the latest recevied weather packets stored in our database for station/object W4SNA-3. If no packets are shown the sender has not sent any weather packets the latest 10 day(s).
| Time | Temp. | Humidity | Pressure | Rain* | Wind** | Luminosity | Snow |
|---|---|---|---|---|---|---|---|
| 1788192014 | 29.44° C | 63% | 1023.4 hPa | 0 mm | - | - | - |
| 1788191706 | 28.89° C | 67% | 1023.5 hPa | 0 mm | - | - | - |
| 1788191392 | 28.89° C | 66% | 1023.5 hPa | 0 mm | - | - | - |
| 1788190904 | 28.89° C | 68% | 1023.4 hPa | 0 mm | - | - | - |
| 1788190604 | 28.33° C | 67% | 1023.4 hPa | 0 mm | - | - | - |
| 1788190310 | 28.33° C | 68% | 1023.3 hPa | 0 mm | - | - | - |
| 1788190003 | 28.33° C | 69% | 1023.3 hPa | 0 mm | - | - | - |
| 1788189704 | 28.33° C | 68% | 1023.2 hPa | 0 mm | - | - | - |
| 1788189404 | 28.33° C | 70% | 1023.2 hPa | 0 mm | - | - | - |
| 1788189105 | 28.33° C | 70% | 1023.4 hPa | 0 mm | - | - | - |
| 1788188804 | 28.33° C | 70% | 1023.2 hPa | 0 mm | - | - | - |
| 1788188504 | 28.33° C | 72% | 1023.2 hPa | 0 mm | - | - | - |
| 1788188204 | 27.78° C | 72% | 1023.3 hPa | 0 mm | - | - | - |
| 1788187907 | 27.78° C | 71% | 1023.2 hPa | 0 mm | - | - | - |
| 1788187628 | 27.78° C | 73% | 1023.4 hPa | 0 mm | - | - | - |
| 1788187305 | 27.78° C | 71% | 1023.3 hPa | 0 mm | - | - | - |
| 1788187017 | 27.78° C | 73% | 1023.4 hPa | 0 mm | - | - | - |
| 1788186707 | 27.22° C | 74% | 1022.4 hPa | 0 mm | - | - | - |
| 1788186403 | 27.22° C | 74% | 1022.5 hPa | 0 mm | - | - | - |
| 1788186104 | 27.22° C | 74% | 1022.4 hPa | 0 mm | - | - | - |
| 1788185816 | 26.67° C | 75% | 1022.3 hPa | 0 mm | - | - | - |
| 1788185504 | 26.67° C | 75% | 1022.3 hPa | 0 mm | - | - | - |
| 1788185210 | 26.11° C | 75% | 1022.3 hPa | 0 mm | - | - | - |
| 1788184904 | 26.11° C | 76% | 1022.1 hPa | 0 mm | - | - | - |
| 1788184622 | 26.11° C | 78% | 1022.1 hPa | 0 mm | - | - | - |
* Rain latest hour (hover to see other rain measurements)
** Current wind speed in m/s (hover to see current wind gust speed)